Weather History for Dalton, GA

Change the Weather History Date:

Sunday, July 14, 2013

  Actual Average Record
Temperature  
Mean Temperature 76 °F -  
Max Temperature 82 °F 89 °F 102 °F (1954)
Min Temperature 69 °F 67 °F 56 °F (1953)
Cooling Degree Days 10    
Growing Degree Days 26 (Base 50)    
Moisture  
Dew Point 71 °F    
Average Humidity 87    
Maximum Humidity 100    
Minimum Humidity 66    
Precipitation  
Precipitation 0.01 in - - ()
Sea Level Pressure  
Sea Level Pressure 30.13 in    
Wind  
Wind Speed 3 mph (SE)    
Max Wind Speed 17 mph    
Max Gust Speed 26 mph    
Visibility 10 miles    
Events Rain    
Averages and records for this station are not official NWS values.
T = Trace of Precipitation, MM = Missing Value Source: NWS Daily Summary

Daily Weather History Graph

Daily Weather History Graph

Search for Another Location

Airport:

Trip Planner

Search our weather history database for the weather conditions in past years. The results will help you decide how hot, cold, wet, or windy it might be!

Date:

Astronomy

Jul. 14, 2013 Rise Set
Actual Time 6:37 AM EDT 8:53 PM EDT
Civil Twilight 6:08 AM EDT 9:22 PM EDT
Nautical Twilight 5:32 AM EDT 9:57 PM EDT
Astronomical Twilight 4:54 AM EDT 10:35 PM EDT
Moon 12:35 PM EDT (7/14) No Moon Set
Length of Visible Light 15h 14m
Length of Day
14h 16m
Waxing Crescent, 35% of the Moon is Illuminated
Jul 14
Waxing Crescent
Jul 15
First Quarter
Jul 22
Full
Jul 29
Last Quarter
Aug 6
New

Hourly Weather History & Observations

Time (EDT) Temp. Heat Index Dew Point Humidity Pressure Visibility Wind Dir Wind Speed Gust Speed Precip Events Conditions
12:15 AM 71.6 °F - 69.8 °F 94% 30.09 in 10.0 mi SSW 3.5 mph - N/A   Clear
12:35 AM 69.8 °F - 69.8 °F 100% 30.09 in 10.0 mi SW 3.5 mph - N/A   Clear
12:55 AM 71.6 °F - 69.8 °F 94% 30.09 in 10.0 mi Calm Calm - N/A   Clear
1:15 AM 69.8 °F - 69.8 °F 100% 30.09 in 10.0 mi Calm Calm - N/A   Scattered Clouds
1:35 AM 69.8 °F - 69.8 °F 100% 30.08 in 10.0 mi Calm Calm - N/A   Scattered Clouds
1:55 AM 69.8 °F - 69.8 °F 100% 30.08 in 10.0 mi Calm Calm - N/A   Mostly Cloudy
2:15 AM 69.8 °F - 69.8 °F 100% 30.08 in 10.0 mi Calm Calm - N/A   Mostly Cloudy
2:35 AM 69.8 °F - 69.8 °F 100% 30.07 in 10.0 mi Calm Calm - N/A   Overcast
2:55 AM 69.8 °F - 69.8 °F 100% 30.07 in 10.0 mi Calm Calm - N/A   Overcast
3:15 AM 69.8 °F - 69.8 °F 100% 30.07 in 10.0 mi Calm Calm - N/A   Overcast
3:35 AM 69.8 °F - 69.8 °F 100% 30.07 in 10.0 mi Calm Calm - N/A   Overcast
3:55 AM 69.8 °F - 69.8 °F 100% 30.07 in 10.0 mi Calm Calm - N/A   Overcast
4:15 AM 69.8 °F - 69.8 °F 100% 30.08 in 5.0 mi Calm Calm - N/A Rain Rain
4:35 AM 69.8 °F - 69.8 °F 100% 30.08 in 7.0 mi Calm Calm - N/A   Overcast
4:55 AM 69.8 °F - 69.8 °F 100% 30.08 in 10.0 mi Calm Calm - N/A   Overcast
5:15 AM 69.8 °F - 69.8 °F 100% 30.09 in 7.0 mi Calm Calm - N/A   Overcast
5:35 AM 69.8 °F - 69.8 °F 100% 30.09 in 7.0 mi Calm Calm - N/A   Overcast
5:55 AM 69.8 °F - 69.8 °F 100% 30.10 in 10.0 mi Calm Calm - N/A   Overcast
6:15 AM 69.8 °F - 69.8 °F 100% 30.10 in 7.0 mi Calm Calm - N/A   Mostly Cloudy
6:35 AM 69.8 °F - 69.8 °F 100% 30.11 in 7.0 mi Calm Calm - N/A   Mostly Cloudy
6:55 AM 69.8 °F - 69.8 °F 100% 30.12 in 5.0 mi Calm Calm - N/A   Mostly Cloudy
7:15 AM 69.8 °F - 69.8 °F 100% 30.13 in 7.0 mi Calm Calm - N/A   Scattered Clouds
7:35 AM 69.8 °F - 69.8 °F 100% 30.13 in 7.0 mi Calm Calm - N/A   Mostly Cloudy
7:55 AM 69.8 °F - 69.8 °F 100% 30.12 in 10.0 mi Calm Calm - N/A   Mostly Cloudy
8:15 AM 71.6 °F - 71.6 °F 100% 30.12 in 7.0 mi Calm Calm - N/A   Mostly Cloudy
8:35 AM 71.6 °F - 71.6 °F 100% 30.13 in 10.0 mi Calm Calm - N/A   Scattered Clouds
8:55 AM 71.6 °F - 71.6 °F 100% 30.14 in 10.0 mi Calm Calm - N/A   Scattered Clouds
9:15 AM 73.4 °F - 71.6 °F 94% 30.14 in 10.0 mi Calm Calm - N/A   Scattered Clouds
9:35 AM 73.4 °F - 71.6 °F 94% 30.15 in 10.0 mi Calm Calm - N/A   Mostly Cloudy
9:55 AM 73.4 °F - 73.4 °F 100% 30.15 in 10.0 mi WNW 3.5 mph - N/A   Overcast
10:15 AM 77.0 °F - 71.6 °F 83% 30.15 in 10.0 mi SE 6.9 mph - N/A   Overcast
10:35 AM 78.8 °F - 69.8 °F 74% 30.15 in 10.0 mi ESE 8.1 mph - N/A   Mostly Cloudy
10:55 AM 77.0 °F - 69.8 °F 78% 30.15 in 10.0 mi SE 4.6 mph - N/A   Overcast
11:15 AM 78.8 °F - 69.8 °F 74% 30.15 in 10.0 mi ESE 5.8 mph - N/A   Overcast
11:35 AM 80.6 °F 83.9 °F 69.8 °F 70% 30.15 in 10.0 mi ESE 6.9 mph - N/A   Mostly Cloudy
11:55 AM 80.6 °F 83.9 °F 69.8 °F 70% 30.16 in 10.0 mi ESE 10.4 mph - N/A   Mostly Cloudy
12:15 PM 80.6 °F 83.9 °F 69.8 °F 70% 30.16 in 10.0 mi SE 8.1 mph - N/A   Overcast
12:35 PM 78.8 °F - 71.6 °F 78% 30.16 in 10.0 mi SSE 5.8 mph - N/A   Overcast
12:55 PM 80.6 °F 83.9 °F 69.8 °F 70% 30.16 in 10.0 mi SE 8.1 mph - N/A   Mostly Cloudy
1:15 PM 80.6 °F 83.9 °F 69.8 °F 70% 30.16 in 10.0 mi SE 5.8 mph - N/A   Mostly Cloudy
1:35 PM 80.6 °F 83.9 °F 69.8 °F 70% 30.15 in 10.0 mi ESE 5.8 mph - N/A   Overcast
1:55 PM 80.6 °F 83.9 °F 69.8 °F 70% 30.15 in 10.0 mi SE 6.9 mph - N/A   Overcast
2:15 PM 82.4 °F 86.3 °F 69.8 °F 66% 30.15 in 10.0 mi ESE 9.2 mph - N/A   Mostly Cloudy
2:35 PM 82.4 °F 86.3 °F 69.8 °F 66% 30.15 in 10.0 mi ESE 9.2 mph - N/A   Mostly Cloudy
2:55 PM 80.6 °F 84.6 °F 71.6 °F 74% 30.15 in 10.0 mi ESE 9.2 mph 17.3 mph N/A   Mostly Cloudy
3:15 PM 82.4 °F 86.3 °F 69.8 °F 66% 30.15 in 10.0 mi SE 9.2 mph - N/A   Scattered Clouds
3:35 PM 82.4 °F 87.2 °F 71.6 °F 70% 30.14 in 10.0 mi SE 10.4 mph - N/A   Clear
3:55 PM 80.6 °F 84.6 °F 71.6 °F 74% 30.15 in 10.0 mi East 17.3 mph 26.5 mph 0.01 in   Mostly Cloudy
4:15 PM 78.8 °F - 71.6 °F 78% 30.14 in 10.0 mi East 10.4 mph 16.1 mph N/A   Scattered Clouds
4:35 PM 78.8 °F - 71.6 °F 78% 30.13 in 10.0 mi ESE 5.8 mph - N/A   Clear
4:55 PM 80.6 °F 84.6 °F 71.6 °F 74% 30.12 in 10.0 mi ESE 8.1 mph - N/A   Scattered Clouds
5:15 PM 82.4 °F 87.2 °F 71.6 °F 70% 30.12 in 10.0 mi East 11.5 mph - N/A   Clear
5:35 PM 82.4 °F 87.2 °F 71.6 °F 70% 30.12 in 10.0 mi ESE 11.5 mph - N/A   Mostly Cloudy
5:55 PM 82.4 °F 87.2 °F 71.6 °F 70% 30.12 in 10.0 mi East 11.5 mph 17.3 mph N/A   Scattered Clouds
6:15 PM 80.6 °F 84.6 °F 71.6 °F 74% 30.12 in 10.0 mi ESE 6.9 mph 16.1 mph N/A   Clear
6:35 PM 80.6 °F 84.6 °F 71.6 °F 74% 30.12 in 10.0 mi ESE 6.9 mph - N/A   Clear
6:55 PM 78.8 °F - 71.6 °F 78% 30.13 in 10.0 mi SE 6.9 mph - N/A   Scattered Clouds
7:15 PM 78.8 °F - 71.6 °F 78% 30.14 in 10.0 mi East 6.9 mph 16.1 mph N/A   Scattered Clouds
7:35 PM 78.8 °F - 71.6 °F 78% 30.14 in 10.0 mi SE 9.2 mph - N/A   Clear
7:55 PM 78.8 °F - 69.8 °F 74% 30.15 in 10.0 mi ESE 10.4 mph - N/A   Mostly Cloudy
8:15 PM 78.8 °F - 69.8 °F 74% 30.15 in 10.0 mi ESE 8.1 mph - N/A   Mostly Cloudy
8:35 PM 77.0 °F - 71.6 °F 83% 30.15 in 10.0 mi ESE 8.1 mph - N/A   Overcast
8:55 PM 77.0 °F - 71.6 °F 83% 30.17 in 10.0 mi East 5.8 mph - N/A   Overcast
9:15 PM 77.0 °F - 69.8 °F 78% 30.18 in 10.0 mi SE 9.2 mph - N/A   Overcast
9:35 PM 73.4 °F - 71.6 °F 94% 30.19 in 10.0 mi SE 5.8 mph - N/A   Light Drizzle
9:55 PM 75.2 °F - 69.8 °F 83% 30.20 in 10.0 mi ESE 6.9 mph - N/A Rain Light Rain
10:15 PM 73.4 °F - 71.6 °F 94% 30.20 in 10.0 mi SE 4.6 mph - N/A   Overcast
10:35 PM 73.4 °F - 71.6 °F 94% 30.20 in 10.0 mi SE 6.9 mph - N/A   Mostly Cloudy
10:55 PM 73.4 °F - 71.6 °F 94% 30.20 in 10.0 mi SE 4.6 mph - N/A   Overcast
11:15 PM 73.4 °F - 71.6 °F 94% 30.21 in 10.0 mi SE 3.5 mph - N/A   Mostly Cloudy
11:35 PM 71.6 °F - 71.6 °F 100% 30.21 in 7.0 mi SE 3.5 mph - N/A   Drizzle
11:55 PM 71.6 °F - 71.6 °F 100% 30.22 in 10.0 mi SE 3.5 mph - N/A   Overcast